(°C)
18°
18°
19°
18°
18°
17°
15°
(°C)
12°
12°
13°
14°
13°
12°
11°
شمال
شمال
شمال
شمال
شمال
شمال
شمال
(كم/سا)
14-17
14-16
13-15
12-14
12-12
13-15
13-19
(مم)
3
3
0
0
0
0
0
(%)
25
25
0
0
0
0
0

مستوى ارتفاع الشمس

/ 32.9°
sun-icon
UV 3
05:39
18:15
قمر الصباح (124°)
16:23
24:00

متر ل46.38°شمال 44.32°شرق (URWI)

الوقت الشروط درجة الحرارة/
نقطة الندى
رياح مجال رؤية حالة الطقس غيوم الضغط تغيير خام
VFR 17°C / 4°C 100º 6kt >10km Light Showers Rain 3.00mm precipitation Vertical Visibility of 0ft. 1013 No Significant change. Runway 09: Clear and dry, 1-10% contamination with <1mm, friction coefficient 0.65. URWI 161130Z 10003MPS 9999 -SHRA FEW069CB 17/04 Q1013 R09/010065 NOSIG
18°C / 4°C 60º 4kt >10km Light Showers Rain 3.00mm precipitation Vertical Visibility of 0ft. 1014 No Significant change. Runway 09: Clear and dry, 1-10% contamination with <1mm, friction coefficient 0.65. URWI 161100Z 06002MPS 9999 -SHRA FEW///CB 18/04 Q1014 R09/010065 NOSIG
18°C / 1°C 40º 6kt >10km Light Showers Rain 3.00mm precipitation Vertical Visibility of 0ft. 1014 No Significant change. Runway 09: Clear and dry, 1-10% contamination with <1mm, friction coefficient 0.65. URWI 161030Z 04003MPS 9999 -SHRA FEW///CB 18/01 Q1014 R09/010065 NOSIG
18°C / 1°C 40º 6kt >10km - 1014 No Significant change. Runway 09: Clear and dry, 1-10% contamination with <1mm, friction coefficient 0.65. URWI 161000Z 04003MPS 9999 FEW///CB 18/01 Q1014 R09/010065 NOSIG
18°C / 1°C 40º 6kt >10km - 1014 No Significant change. Runway 09: Clear and dry, 1-10% contamination with <1mm, friction coefficient 0.65. URWI 160930Z 04003MPS 9999 FEW///CB 18/01 Q1014 R09/010065 NOSIG
17°C / 1°C 60º 6kt >10km - 1014 No Significant change. Runway 09: Clear and dry, 1-10% contamination with <1mm, friction coefficient 0.65. URWI 160900Z 06003MPS 9999 FEW///CB 17/01 Q1014 R09/010065 NOSIG
VFR 17°C / 0°C 60º 8kt >10km - Few Clouds 6200ft 1014 No Significant change. Runway 09: Clear and dry, 1-10% contamination with <1mm, friction coefficient 0.65. URWI 160830Z 06004MPS 9999 FEW062CB 17/00 Q1014 R09/010065 NOSIG
17°C / 1°C 40º 10kt >10km - 1014 No Significant change. Runway 09: Clear and dry, 1-10% contamination with <1mm, friction coefficient 0.65. URWI 160800Z 04005MPS 9999 FEW///CB 17/01 Q1014 R09/010065 NOSIG
18°C / 0°C 70º 8kt >10km - 1014 No Significant change. Runway 09: Clear and dry, 1-10% contamination with <1mm, friction coefficient 0.65. URWI 160730Z 07004MPS 9999 FEW///CB 18/M00 Q1014 R09/010065 NOSIG
17°C / 0°C 60º 8kt >10km - 1014 No Significant change. Runway 09: Clear and dry, 1-10% contamination with <1mm, friction coefficient 0.65. URWI 160700Z 06004MPS 9999 FEW///CB 17/00 Q1014 R09/010065 NOSIG
17°C / 0°C 60º 8kt >10km - 1014 No Significant change URWI 160630Z 06004MPS 9999 FEW///CB 17/00 Q1014 NOSIG
16°C / 0°C 60º 6kt >10km - 1014 No Significant change URWI 160600Z 06003MPS 9999 FEW///CB 16/M00 Q1014 NOSIG
16°C / 0°C 70º 8kt >10km - 1014 No Significant change URWI 160530Z 07004MPS 9999 FEW///CB 16/M00 Q1014 NOSIG
16°C / 0°C 70º 10kt >10km - 1013 - URWI 160500Z AUTO 07005MPS 9999 // ///069/// 16/M00 Q1013
15°C / 0°C 70º 8kt >10km - 1013 - URWI 160430Z AUTO 07004MPS 9999 // ///075/// 15/00 Q1013
14°C / 1°C 50º 6kt >10km - 1014 - URWI 160400Z AUTO 05003MPS 9999 // ///073/// 14/01 Q1014
14°C / 1°C 70º 6kt >10km - 1013 - URWI 160330Z AUTO 07003MPS 9999 // ///075/// 14/01 Q1013
13°C / 1°C 60º 8kt >10km - 1013 - URWI 160300Z AUTO 06004MPS 9999 // ///076/// 13/01 Q1013
13°C / 1°C 60º 8kt >10km - 1013 - URWI 160230Z AUTO 06004MPS 9999 // ///////// 13/01 Q1013
14°C / 2°C 60º 8kt >10km - 1013 - URWI 160200Z AUTO 06004MPS 9999 // ///076/// 14/02 Q1013
14°C / 2°C 70º 8kt >10km - 1013 - URWI 160130Z AUTO 07004MPS 9999 // ///084/// 14/02 Q1013
14°C / 2°C 70º 8kt >10km - 1013 - URWI 160100Z AUTO 07004MPS 9999 // ///085/// 14/02 Q1013
15°C / 2°C 70º 10kt >10km - 1013 - URWI 160030Z AUTO 07005MPS 9999 // ///073/// 15/02 Q1013
15°C / 2°C 50º 12kt >10km - 1013 - URWI 160000Z AUTO 05006MPS 9999 // ///080/// 15/02 Q1013

VFR

17°C / 4°C

[أكثر]
رياح 100º 6kt
مجال رؤية >10km
حالة الطقس Light Showers Rain 3.00mm precipitation
غيوم Vertical Visibility of 0ft.
الضغط 1013
تغيير No Significant change. Runway 09: Clear and dry, 1-10% contamination with <1mm, friction coefficient 0.65.
خام URWI 161130Z 10003MPS 9999 -SHRA FEW069CB 17/04 Q1013 R09/010065 NOSIG

18°C / 4°C

[أكثر]
رياح 60º 4kt
مجال رؤية >10km
حالة الطقس Light Showers Rain 3.00mm precipitation
غيوم Vertical Visibility of 0ft.
الضغط 1014
تغيير No Significant change. Runway 09: Clear and dry, 1-10% contamination with <1mm, friction coefficient 0.65.
خام URWI 161100Z 06002MPS 9999 -SHRA FEW///CB 18/04 Q1014 R09/010065 NOSIG

18°C / 1°C

[أكثر]
رياح 40º 6kt
مجال رؤية >10km
حالة الطقس Light Showers Rain 3.00mm precipitation
غيوم Vertical Visibility of 0ft.
الضغط 1014
تغيير No Significant change. Runway 09: Clear and dry, 1-10% contamination with <1mm, friction coefficient 0.65.
خام URWI 161030Z 04003MPS 9999 -SHRA FEW///CB 18/01 Q1014 R09/010065 NOSIG

18°C / 1°C

[أكثر]
رياح 40º 6kt
مجال رؤية >10km
حالة الطقس -
غيوم
الضغط 1014
تغيير No Significant change. Runway 09: Clear and dry, 1-10% contamination with <1mm, friction coefficient 0.65.
خام URWI 161000Z 04003MPS 9999 FEW///CB 18/01 Q1014 R09/010065 NOSIG

18°C / 1°C

[أكثر]
رياح 40º 6kt
مجال رؤية >10km
حالة الطقس -
غيوم
الضغط 1014
تغيير No Significant change. Runway 09: Clear and dry, 1-10% contamination with <1mm, friction coefficient 0.65.
خام URWI 160930Z 04003MPS 9999 FEW///CB 18/01 Q1014 R09/010065 NOSIG

17°C / 1°C

[أكثر]
رياح 60º 6kt
مجال رؤية >10km
حالة الطقس -
غيوم
الضغط 1014
تغيير No Significant change. Runway 09: Clear and dry, 1-10% contamination with <1mm, friction coefficient 0.65.
خام URWI 160900Z 06003MPS 9999 FEW///CB 17/01 Q1014 R09/010065 NOSIG

VFR

17°C / 0°C

[أكثر]
رياح 60º 8kt
مجال رؤية >10km
حالة الطقس -
غيوم Few Clouds 6200ft
الضغط 1014
تغيير No Significant change. Runway 09: Clear and dry, 1-10% contamination with <1mm, friction coefficient 0.65.
خام URWI 160830Z 06004MPS 9999 FEW062CB 17/00 Q1014 R09/010065 NOSIG

17°C / 1°C

[أكثر]
رياح 40º 10kt
مجال رؤية >10km
حالة الطقس -
غيوم
الضغط 1014
تغيير No Significant change. Runway 09: Clear and dry, 1-10% contamination with <1mm, friction coefficient 0.65.
خام URWI 160800Z 04005MPS 9999 FEW///CB 17/01 Q1014 R09/010065 NOSIG

18°C / 0°C

[أكثر]
رياح 70º 8kt
مجال رؤية >10km
حالة الطقس -
غيوم
الضغط 1014
تغيير No Significant change. Runway 09: Clear and dry, 1-10% contamination with <1mm, friction coefficient 0.65.
خام URWI 160730Z 07004MPS 9999 FEW///CB 18/M00 Q1014 R09/010065 NOSIG

17°C / 0°C

[أكثر]
رياح 60º 8kt
مجال رؤية >10km
حالة الطقس -
غيوم
الضغط 1014
تغيير No Significant change. Runway 09: Clear and dry, 1-10% contamination with <1mm, friction coefficient 0.65.
خام URWI 160700Z 06004MPS 9999 FEW///CB 17/00 Q1014 R09/010065 NOSIG

17°C / 0°C

[أكثر]
رياح 60º 8kt
مجال رؤية >10km
حالة الطقس -
غيوم
الضغط 1014
تغيير No Significant change
خام URWI 160630Z 06004MPS 9999 FEW///CB 17/00 Q1014 NOSIG

16°C / 0°C

[أكثر]
رياح 60º 6kt
مجال رؤية >10km
حالة الطقس -
غيوم
الضغط 1014
تغيير No Significant change
خام URWI 160600Z 06003MPS 9999 FEW///CB 16/M00 Q1014 NOSIG

16°C / 0°C

[أكثر]
رياح 70º 8kt
مجال رؤية >10km
حالة الطقس -
غيوم
الضغط 1014
تغيير No Significant change
خام URWI 160530Z 07004MPS 9999 FEW///CB 16/M00 Q1014 NOSIG

16°C / 0°C

[أكثر]
رياح 70º 10kt
مجال رؤية >10km
حالة الطقس -
غيوم
الضغط 1013
تغيير -
خام URWI 160500Z AUTO 07005MPS 9999 // ///069/// 16/M00 Q1013

15°C / 0°C

[أكثر]
رياح 70º 8kt
مجال رؤية >10km
حالة الطقس -
غيوم
الضغط 1013
تغيير -
خام URWI 160430Z AUTO 07004MPS 9999 // ///075/// 15/00 Q1013

14°C / 1°C

[أكثر]
رياح 50º 6kt
مجال رؤية >10km
حالة الطقس -
غيوم
الضغط 1014
تغيير -
خام URWI 160400Z AUTO 05003MPS 9999 // ///073/// 14/01 Q1014

14°C / 1°C

[أكثر]
رياح 70º 6kt
مجال رؤية >10km
حالة الطقس -
غيوم
الضغط 1013
تغيير -
خام URWI 160330Z AUTO 07003MPS 9999 // ///075/// 14/01 Q1013

13°C / 1°C

[أكثر]
رياح 60º 8kt
مجال رؤية >10km
حالة الطقس -
غيوم
الضغط 1013
تغيير -
خام URWI 160300Z AUTO 06004MPS 9999 // ///076/// 13/01 Q1013

13°C / 1°C

[أكثر]
رياح 60º 8kt
مجال رؤية >10km
حالة الطقس -
غيوم
الضغط 1013
تغيير -
خام URWI 160230Z AUTO 06004MPS 9999 // ///////// 13/01 Q1013

14°C / 2°C

[أكثر]
رياح 60º 8kt
مجال رؤية >10km
حالة الطقس -
غيوم
الضغط 1013
تغيير -
خام URWI 160200Z AUTO 06004MPS 9999 // ///076/// 14/02 Q1013

14°C / 2°C

[أكثر]
رياح 70º 8kt
مجال رؤية >10km
حالة الطقس -
غيوم
الضغط 1013
تغيير -
خام URWI 160130Z AUTO 07004MPS 9999 // ///084/// 14/02 Q1013

14°C / 2°C

[أكثر]
رياح 70º 8kt
مجال رؤية >10km
حالة الطقس -
غيوم
الضغط 1013
تغيير -
خام URWI 160100Z AUTO 07004MPS 9999 // ///085/// 14/02 Q1013

15°C / 2°C

[أكثر]
رياح 70º 10kt
مجال رؤية >10km
حالة الطقس -
غيوم
الضغط 1013
تغيير -
خام URWI 160030Z AUTO 07005MPS 9999 // ///073/// 15/02 Q1013

15°C / 2°C

[أكثر]
رياح 50º 12kt
مجال رؤية >10km
حالة الطقس -
غيوم
الضغط 1013
تغيير -
خام URWI 160000Z AUTO 05006MPS 9999 // ///080/// 15/02 Q1013

انقر ل46.38°شمال 44.32°شرق (URWI)

From till


From till Wind 40º 6kt. Gust 16kt. Visibility 10km or more. Scattered Clouds 3000ft.
With 40% probability, Temporarly from till Light Thunderstorm Rain .
Temporarly from till Wind 60º 6kt. Gust 19kt. Light Showers Rain . Scattered Clouds 1600ft. Broken Clouds 3000ft.

خام: TAF URWI 161056Z 1612/1621 04003G08MPS 9999 SCT030CB TEMPO 1612/1621 06003G10MPS -SHRA SCT016 BKN030CB PROB40 TEMPO 1612/1618 -TSRA

صور الأقمار الصناعية الملتقطة و الأمطار حالياً ل46.38°شمال 44.32°شرق

المؤشر يدل على موقع 46.38°شمال 44.32°شرق. [أكثر]

تجمع صورة الأقمار الصناعية في الوقت الفعلي بين الضوء المرئي أثناء النهار والأشعة تحت الحمراء أثناء الليل. لا تبدو الصورة مظلمة ليلاً، لأن الأشعة تحت الحمراء يمكنها الكشف عن الاختلافات في درجة الحرارة. لسوء الحظ ، يصعب التمييز بين السحب المنخفضة والضباب ودرجات حرارة الأرض ، وبالتالي يمكن أن تكون الصور غير مرئية تقريبًا أثناء الليل. يتم تحديث صور الأقمار الصناعية Meteosat الخاصة بأوروبا في الوقت الفعلي كل 5 دقائق، بينما يتم تحديث صور GOES-16 / GOES-17 (أمريكا الشمالية والجنوبية) و Himawari (آسيا) كل 10 دقائق.

حقوق النسخ 2021 EUMETSAT / meteoblue. / حقوق النسخ 2021 meteoblue

رادار وهطول الأمطار التنبؤ الآني ل46.38°شمال 44.32°شرق

رذاذ
ضوء
معتدل
ثقيل
ثقيل جدا
وابل

مؤشر المكان يشير الى 46.38°شمال 44.32°شرق. تظهر في هذه الرسوم المتحركة هطول الامطار بالرادار للساعة الماضية, و توقعات 1h. رذاذ أو تساقط ثلوج خفيف قد يكون غير مرئي للرادار. كثافة هطول الأمطار مرمزة بالألوان وتتراوح من الأزرق الفاتح إلى البرتقالي.